ETD18M EDDF-OMAA

Flight info

Callsign ETD18M
Flight time N/A
Altitude 35000
Route CINDY8S CINDY Z74 HAREM DCT ASLEP DCT TAKUT DCT DINKU L603 BESNI L605 MIQ DCT ALUTU DCT BIBAG L605 ESEGA DCT LIMRA DCT NURMI DCT NIDLO DCT VABEK UL603 OLOTA DCT RUGAS DCT PEREN DCT RIKSO UP14 LAVTA UN135 NESIL UT39 TOMBI DCT BALMA UR655 CAK UN310 LATEB N310 BASEM R785 RASLI P559 TRF R23 NEVOL N318 TAMRO T503 KSA N687 KINIB Z511 GISRA L681 ORLEK DCT KUPRO N300 KAXOB Q415 UKILI
Aircraft B77W/H-SDE1E2E3FGHIJ2J3J4J5M1RWXY/LB1D1

Departure

Time 2026-05-03 21:12
Airport Frankfurt Main Airport (EDDF)

Arrival

Time N/A
Airport Zayed International Airport (OMAA)
Time Latitude Longitude Altitude Speed Heading
2026-05-03 20:45 50.02988 8.57578 368 ft 0 kts 25°
2026-05-03 20:55 50.02968 8.57564 367 ft 4 kts 24°
2026-05-03 20:55 50.02943 8.57547 368 ft 4 kts 25°
2026-05-03 20:55 50.02923 8.57532 367 ft 4 kts 21°
2026-05-03 20:56 50.02902 8.57529 363 ft 4 kts 319°
2026-05-03 20:56 50.02889 8.57561 369 ft 4 kts 287°
2026-05-03 20:56 50.02883 8.57602 383 ft 4 kts 273°
2026-05-03 20:56 50.02883 8.57644 358 ft 4 kts 268°
2026-05-03 20:57 50.02883 8.57660 359 ft 0 kts 272°
2026-05-03 20:59 50.02883 8.57659 359 ft 1 kts 272°
2026-05-03 20:59 50.02885 8.57603 383 ft 8 kts 275°
2026-05-03 21:00 50.02901 8.57522 364 ft 9 kts 294°
2026-05-03 21:00 50.02919 8.57459 366 ft 10 kts 294°
2026-05-03 21:00 50.02951 8.57349 363 ft 8 kts 294°
2026-05-03 21:00 50.02975 8.57269 360 ft 8 kts 295°
2026-05-03 21:01 50.02998 8.57191 362 ft 6 kts 295°
2026-05-03 21:01 50.03007 8.57163 364 ft 2 kts 295°
2026-05-03 21:01 50.03008 8.57158 364 ft 0 kts 295°
2026-05-03 21:03 50.03009 8.57155 362 ft 1 kts 295°
2026-05-03 21:03 50.03020 8.57119 363 ft 6 kts 295°
2026-05-03 21:03 50.03039 8.57055 364 ft 9 kts 295°
2026-05-03 21:03 50.03070 8.56969 364 ft 10 kts 312°
2026-05-03 21:04 50.03144 8.56909 367 ft 13 kts 340°
2026-05-03 21:04 50.03226 8.56858 365 ft 13 kts 334°
2026-05-03 21:04 50.03261 8.56740 354 ft 14 kts 259°
2026-05-03 21:04 50.03228 8.56592 362 ft 15 kts 250°
2026-05-03 21:05 50.03189 8.56424 360 ft 17 kts 250°
2026-05-03 21:05 50.03127 8.56162 356 ft 34 kts 249°
2026-05-03 21:05 50.03047 8.55832 354 ft 31 kts 249°
2026-05-03 21:05 50.02973 8.55524 353 ft 30 kts 249°
2026-05-03 21:06 50.02901 8.55224 359 ft 30 kts 249°
2026-05-03 21:06 50.02828 8.54921 357 ft 30 kts 249°
2026-05-03 21:06 50.02756 8.54617 355 ft 30 kts 250°
2026-05-03 21:06 50.02686 8.54311 349 ft 30 kts 254°
2026-05-03 21:07 50.02620 8.54002 339 ft 30 kts 250°
2026-05-03 21:07 50.02547 8.53699 339 ft 30 kts 249°
2026-05-03 21:07 50.02474 8.53396 346 ft 30 kts 250°
2026-05-03 21:07 50.02416 8.53145 336 ft 21 kts 250°
2026-05-03 21:08 50.02440 8.52931 337 ft 17 kts 302°
2026-05-03 21:08 50.02522 8.52834 338 ft 15 kts 345°
2026-05-03 21:08 50.02627 8.52825 338 ft 15 kts 360°
2026-05-03 21:08 50.02696 8.52825 336 ft 8 kts 360°
2026-05-03 21:09 50.02752 8.52824 338 ft 8 kts 360°
2026-05-03 21:09 50.02814 8.52824 336 ft 12 kts 360°
2026-05-03 21:09 50.02934 8.52824 335 ft 20 kts 360°
2026-05-03 21:09 50.03070 8.52822 336 ft 20 kts 360°
2026-05-03 21:10 50.03198 8.52821 337 ft 13 kts 359°
2026-05-03 21:10 50.03272 8.52782 335 ft 12 kts 297°
2026-05-03 21:10 50.03256 8.52660 336 ft 12 kts 237°
2026-05-03 21:10 50.03186 8.52598 337 ft 12 kts 185°
2026-05-03 21:11 50.03026 8.52596 335 ft 45 kts 179°
2026-05-03 21:11 50.02441 8.52602 340 ft 121 kts 180°
2026-05-03 21:11 50.01380 8.52609 359 ft 180 kts 180°
2026-05-03 21:11 50.00086 8.52621 948 ft 182 kts 181°
2026-05-03 21:12 49.98803 8.52635 1710 ft 189 kts 183°
2026-05-03 21:12 49.97432 8.52716 2035 ft 212 kts 174°
2026-05-03 21:12 49.96013 8.53754 2413 ft 242 kts 140°
2026-05-03 21:12 49.95052 8.56020 2889 ft 262 kts 118°
2026-05-03 21:13 49.94282 8.58676 3551 ft 272 kts 117°
2026-05-03 21:13 49.93630 8.61476 4243 ft 285 kts 103°
2026-05-03 21:13 49.93584 8.64588 5022 ft 290 kts 89°
2026-05-03 21:13 49.93606 8.67745 5760 ft 290 kts 102°
2026-05-03 21:14 49.92947 8.70609 6627 ft 275 kts 135°
2026-05-03 21:14 49.91542 8.72448 7389 ft 262 kts 155°
2026-05-03 21:14 49.89970 8.73977 8016 ft 271 kts 153°
2026-05-03 21:14 49.88425 8.75676 8791 ft 275 kts 143°
2026-05-03 21:15 49.87294 8.78183 9399 ft 291 kts 123°
2026-05-03 21:15 49.86373 8.81022 10082 ft 297 kts 124°
2026-05-03 21:15 49.85378 8.83895 10580 ft 312 kts 124°
2026-05-03 21:15 49.84333 8.87014 10784 ft 340 kts 122°
2026-05-03 21:16 49.83229 8.90428 10989 ft 367 kts 121°
2026-05-03 21:16 49.82073 8.94039 11547 ft 382 kts 120°
2026-05-03 21:16 49.80879 8.97767 12372 ft 390 kts 120°
2026-05-03 21:16 49.79676 9.01518 13343 ft 396 kts 119°
2026-05-03 21:17 49.78442 9.05370 14247 ft 402 kts 119°
2026-05-03 21:17 49.77602 9.07995 14838 ft 405 kts 120°
2026-05-03 21:17 49.75935 9.13191 16062 ft 410 kts 120°
2026-05-03 21:17 49.74578 9.17096 16927 ft 414 kts 122°
2026-05-03 21:18 49.73126 9.20959 17803 ft 419 kts 123°
2026-05-03 21:18 49.71623 9.24847 18620 ft 424 kts 124°
2026-05-03 21:18 49.70094 9.28777 19407 ft 428 kts 124°